GFSSGP_925_rhum_000.txt.gz
RH
17 17 17 12 10 12 20 22 24 37 36 37 35 30 36 46 40 46 52 58 53 64 74 79 79 80 76 77 78 78 74 69 73 79 79 77 78 77 72 67 62 59 56 59 62 85 77 92 92
18 14 11 9 10 14 19 21 25 31 38 35 36 38 34 46 46 51 51 57 55 65 74 77 81 81 84 83 84 82 80 78 78 77 77 79 82 78 75 70 68 66 72 87 94 94 84 76 89
17 12 8 9 10 15 19 19 34 37 37 36 36 36 40 42 40 41 48 52 56 63 70 84 84 85 87 89 90 88 86 81 79 76 80 85 84 78 72 66 57 51 57 63 71 85 82 79 78
11 7 10 11 14 21 20 26 28 34 37 34 26 35 42 48 43 46 54 52 50 53 62 65 67 70 74 83 82 79 82 82 78 78 79 82 81 72 61 54 52 57 60 64 66 66 70 76 87
7 7 13 14 17 22 22 25 29 28 30 33 32 38 42 53 61 56 58 54 48 48 58 60 60 65 65 61 60 65 69 66 62 59 64 63 59 58 55 56 58 57 61 64 66 72 73 72 67
7 10 13 16 22 25 25 28 25 22 27 32 31 31 38 58 55 56 58 52 46 49 62 61 55 51 49 49 48 48 48 51 53 53 52 55 55 55 55 54 51 51 54 58 63 65 71 78 80
8 10 11 14 19 19 18 18 19 20 22 24 26 27 45 54 50 56 52 48 49 48 54 59 61 63 47 49 49 50 55 54 53 55 59 57 58 61 62 61 62 61 60 61 60 57 58 63 68
7 7 10 11 11 10 8 9 12 14 19 29 24 22 36 42 57 59 52 49 49 55 53 60 67 62 67 67 49 50 51 50 53 56 61 62 65 66 66 61 68 57 52 50 49 47 48 51 56
7 7 8 8 8 8 7 8 8 14 20 23 22 21 29 47 62 62 57 52 51 55 63 66 62 66 66 60 64 54 54 56 58 68 64 73 70 74 70 68 59 58 55 52 47 44 40 39 54
7 7 8 6 7 7 7 7 8 12 12 14 19 30 41 55 60 56 52 46 52 54 61 64 70 68 68 60 67 68 70 68 76 76 82 70 77 77 75 74 58 52 53 60 57 56 49 57 55
9 8 8 8 8 7 7 7 7 8 9 9 12 21 41 50 52 48 44 38 45 49 54 62 73 75 70 56 59 55 56 63 68 84 85 77 81 73 72 70 68 72 75 67 68 71 65 73 67
11 11 8 9 9 9 8 9 9 8 7 9 12 18 33 40 40 38 36 35 37 43 50 60 68 75 76 57 54 56 57 57 61 65 85 77 69 69 70 64 61 62 66 72 66 66 78 65 58
11 12 12 12 11 11 12 11 12 10 8 9 14 24 28 29 32 35 34 31 33 42 52 62 68 70 64 72 60 64 64 57 62 63 64 73 65 63 60 57 54 55 59 61 64 62 56 44 41
15 13 14 14 14 14 15 13 13 11 10 10 12 19 24 26 27 31 34 35 38 44 51 63 66 63 54 58 66 60 57 55 55 53 53 66 68 58 52 46 44 44 46 52 57 54 49 41 40
15 15 14 15 14 16 13 12 11 10 10 11 10 12 20 24 24 26 28 34 35 38 47 59 60 49 53 53 54 49 44 48 45 44 50 55 56 49 51 44 44 44 46 56 61 63 55 47 39
12 12 13 16 15 16 14 13 12 14 15 11 14 12 18 24 26 26 28 33 38 41 48 52 52 40 44 47 49 46 43 47 44 45 47 52 56 58 54 46 45 44 49 49 51 52 48 46 38
12 10 12 16 17 17 16 14 14 14 16 15 14 13 12 20 27 33 41 41 37 38 46 48 44 30 37 46 48 49 50 45 36 39 37 41 47 50 52 46 44 48 48 46 48 49 47 46 37
13 12 13 14 15 16 18 17 14 16 16 18 16 14 12 17 27 30 28 27 32 38 46 44 35 35 46 47 49 40 39 37 37 34 35 39 40 46 48 47 50 54 54 49 45 48 48 43 41
16 16 16 15 20 26 23 16 16 16 16 17 16 15 17 21 23 24 27 28 36 48 46 42 40 46 40 34 32 29 31 31 33 36 44 47 46 46 47 45 46 48 48 49 55 53 51 54 46
18 18 18 20 22 26 20 18 16 18 20 20 18 17 18 19 19 24 28 32 34 39 40 39 35 36 35 32 36 39 41 37 41 37 40 39 40 38 38 41 43 42 44 46 49 54 55 53 51
22 21 26 26 23 24 22 21 19 18 18 18 19 19 19 19 20 23 28 32 36 38 37 35 37 39 42 38 35 34 35 33 34 36 34 37 40 40 40 41 45 48 46 42 43 46 48 48 48
24 25 31 29 28 22 24 22 25 19 20 20 20 22 22 21 21 22 24 31 34 42 41 39 40 39 41 42 40 43 38 38 41 41 39 41 37 38 41 42 46 47 45 45 43 39 44 46 46
32 34 32 31 28 29 26 21 27 21 23 23 23 24 24 25 27 30 32 34 38 41 44 43 42 42 43 41 44 41 43 44 42 42 39 33 30 36 41 48 51 52 49 48 57 58 59 59 56
31 32 33 33 33 38 33 29 30 28 28 25 26 29 31 30 28 33 35 35 38 44 47 45 40 42 46 46 45 51 54 51 44 38 36 32 35 36 41 52 55 59 59 58 59 67 71 70 72
26 29 35 46 44 40 34 31 36 30 28 29 32 32 34 35 34 32 33 34 39 43 45 42 42 40 45 48 46 47 45 43 41 40 39 42 39 40 45 59 57 54 60 61 63 68 71 80 85
35 36 47 49 46 37 31 31 33 29 28 30 31 33 32 34 34 33 33 35 40 44 47 46 44 41 42 44 40 37 45 48 45 45 48 47 48 51 61 62 60 61 63 65 70 74 79 79 83
35 43 39 54 78 63 33 34 32 29 29 29 31 33 34 33 32 32 33 36 41 46 47 52 49 41 42 45 47 49 53 52 52 51 50 49 55 56 62 67 61 55 60 62 68 79 86 84 85
34 36 42 39 69 42 24 27 26 37 33 32 32 34 34 32 32 32 32 37 43 44 50 51 52 50 52 52 50 53 54 53 54 53 54 58 61 66 60 57 57 59 65 77 80 83 84 81 75
40 42 41 37 47 49 51 29 31 31 30 32 32 30 33 35 33 33 35 37 40 48 49 51 55 57 55 52 53 52 55 54 54 57 60 64 65 61 57 59 64 70 90 99 98 86 72 56 54
38 40 38 43 47 52 60 46 29 29 29 32 32 31 33 36 34 34 37 40 45 49 51 53 56 52 56 54 53 55 56 56 56 62 67 72 72 72 72 83 96 95 96 83 74 68 56 49 45

GFSSGP_925_rhum_003.txt.gz
RH
9 14 12 11 11 9 17 20 17 22 25 24 21 23 25 29 38 51 37 40 49 53 64 77 83 83 82 81 78 79 79 80 83 85 82 80 78 75 69 65 62 60 59 62 64 82 77 88 95
15 10 11 9 11 11 16 15 19 20 22 19 19 18 21 34 34 36 35 39 47 54 59 78 79 84 83 84 84 82 80 75 75 76 78 84 80 75 72 69 66 62 63 82 96 99 87 82 87
19 12 9 7 8 10 16 14 21 21 20 19 19 18 22 31 27 29 35 41 48 51 58 75 84 88 87 89 88 85 82 76 76 76 81 86 83 79 73 60 49 53 67 80 82 79 82 82 78
11 7 8 9 12 13 13 18 19 20 22 19 16 25 30 26 27 34 36 38 40 45 59 74 89 93 91 90 92 92 89 87 81 75 72 73 70 64 54 50 53 59 65 68 68 69 68 65 63
9 7 9 10 14 14 16 16 16 19 19 18 16 20 33 38 37 35 35 34 36 37 45 75 70 69 69 74 75 75 75 72 66 62 66 66 60 57 54 49 44 41 46 53 60 65 68 70 71
7 7 11 14 15 17 17 17 17 15 16 16 17 21 32 38 35 37 35 33 31 39 44 52 43 47 54 57 58 58 60 63 62 59 60 63 63 60 56 50 45 41 43 47 51 53 52 55 60
9 10 11 14 18 18 18 14 14 12 14 15 14 20 30 30 36 38 33 30 28 37 42 46 52 61 44 46 48 51 55 57 61 61 60 60 58 57 55 47 44 37 36 38 40 40 37 38 45
7 8 10 11 14 14 10 10 11 12 14 12 12 18 29 31 38 36 32 29 30 34 42 47 48 49 55 71 48 50 49 51 56 56 57 56 72 67 64 66 59 47 48 48 45 39 36 33 35
5 8 9 8 8 8 6 6 6 7 13 12 13 19 18 36 41 36 33 29 32 36 44 45 48 48 50 46 55 57 56 55 62 70 72 76 63 61 61 72 66 52 53 56 62 58 50 46 56
6 6 7 5 5 6 5 5 6 9 11 10 14 17 25 37 39 34 29 28 33 40 41 50 52 52 50 40 49 52 54 57 61 62 65 55 62 62 62 67 67 68 72 72 68 67 66 65 50
6 8 6 6 5 4 4 5 5 6 8 8 12 15 24 30 32 32 29 27 31 37 37 45 62 57 50 42 44 42 43 49 53 63 66 60 61 57 56 55 56 61 63 59 60 62 61 66 61
8 6 6 6 6 6 5 5 6 6 5 6 8 14 22 28 30 30 28 26 29 32 32 46 58 56 54 45 42 43 43 46 46 52 60 58 53 53 54 50 49 45 45 54 53 53 58 60 49
7 7 6 6 7 7 8 8 9 6 6 7 9 16 22 26 27 27 27 26 27 28 31 39 51 48 45 52 48 52 53 48 52 50 50 53 54 53 50 46 43 40 39 42 45 46 46 44 40
8 9 10 10 10 10 11 10 10 9 7 7 9 13 17 20 22 24 26 25 25 27 34 40 46 47 40 43 52 53 49 44 42 41 42 50 53 51 48 43 40 38 38 39 43 45 48 43 36
9 11 11 11 11 11 10 11 10 9 9 8 8 9 13 16 18 21 25 25 27 28 31 41 45 43 38 43 46 41 35 39 37 37 42 44 47 46 48 44 43 40 40 42 42 44 45 46 42
10 10 12 11 11 12 11 13 9 9 10 10 10 9 10 14 16 17 21 24 26 26 29 37 42 38 37 39 39 36 36 38 38 37 38 43 47 49 49 44 41 40 44 43 40 40 41 41 40
10 11 10 14 11 12 11 11 11 11 11 11 10 10 10 12 16 18 19 21 24 26 29 35 42 30 33 40 37 40 40 39 32 33 32 35 39 40 44 43 42 44 45 45 45 42 41 40 41
11 9 8 9 12 10 10 11 11 12 12 12 10 10 10 10 15 19 25 25 25 26 29 32 40 28 33 37 40 33 33 33 32 32 34 39 40 45 47 46 46 46 46 44 43 46 46 47 46
11 11 11 11 13 14 15 11 13 13 12 14 12 12 12 11 16 25 24 26 29 34 30 29 34 40 34 32 30 27 28 29 32 34 38 42 41 41 41 40 38 41 40 41 44 45 46 48 46
14 14 14 14 14 15 14 13 14 14 16 14 14 15 17 19 20 22 25 27 27 34 33 37 37 32 30 29 33 37 39 35 36 35 36 35 40 41 40 38 37 36 37 40 41 44 47 46 45
17 17 21 20 16 14 15 16 16 15 15 15 16 16 16 18 20 23 27 32 35 36 34 32 33 36 36 33 32 33 32 32 32 34 36 37 42 39 36 35 37 40 40 38 39 39 41 43 42
21 20 22 21 20 19 15 18 18 16 18 18 19 19 18 18 18 19 24 28 36 37 36 35 35 35 37 40 36 39 38 38 40 39 39 39 36 32 32 34 40 45 43 42 41 35 47 46 47
26 25 24 23 21 19 17 16 24 16 19 20 22 22 22 22 23 24 26 30 34 39 41 38 37 37 39 39 42 43 45 46 48 45 40 38 32 34 34 36 40 45 43 45 49 50 54 54 52
23 25 24 25 23 30 23 21 23 21 23 23 24 26 25 24 26 27 29 31 36 40 42 40 36 36 42 44 45 48 56 54 43 38 36 34 37 36 35 37 44 46 48 50 51 52 59 74 71
20 23 34 39 36 36 24 21 29 24 23 23 26 26 28 29 27 26 27 29 35 37 40 38 36 34 36 41 45 41 39 39 39 38 39 41 38 38 40 46 50 49 48 49 55 70 81 82 89
25 28 44 41 38 30 23 22 27 23 24 24 24 26 27 30 31 30 30 32 33 36 38 43 41 39 35 39 40 40 41 42 42 43 45 44 43 44 44 49 53 51 52 56 61 68 75 77 82
28 33 27 44 55 53 22 21 24 24 25 25 26 27 28 28 29 29 29 32 36 37 38 43 44 42 42 44 43 43 43 44 46 47 47 45 47 45 43 47 49 53 52 62 69 72 82 81 85
29 26 38 33 59 36 19 17 28 31 26 26 24 26 27 28 27 27 28 30 34 35 37 40 45 44 44 44 42 43 46 48 45 45 46 47 48 49 54 56 63 65 78 84 84 81 77 84 76
30 33 32 25 35 44 40 27 25 25 26 27 27 25 25 25 27 27 30 33 34 35 39 42 45 49 45 44 45 48 47 45 44 44 47 57 65 63 75 85 85 90 93 95 93 79 74 78 81
29 31 29 40 37 39 49 44 23 24 23 25 27 26 27 28 29 28 30 33 36 40 41 44 49 53 51 50 46 43 43 46 44 48 58 63 70 75 83 88 89 94 99 96 90 82 66 59 57

GFSSGP_925_rhum_006.txt.gz
RH
4 10 14 13 18 15 13 16 18 22 23 19 20 20 28 37 45 59 36 42 55 70 75 78 78 80 80 80 79 80 82 82 85 84 82 79 76 71 69 66 64 60 55 72 93 95 72 67 75
8 18 10 14 18 16 14 16 19 22 19 14 16 16 26 38 33 34 37 44 57 66 78 88 77 81 83 85 83 80 77 76 76 77 77 77 74 72 70 64 48 47 57 74 66 68 79 73 74
11 15 12 16 14 13 18 16 22 18 14 15 18 25 25 31 30 32 39 45 62 76 81 74 80 83 87 90 87 84 77 72 75 78 83 80 79 73 60 50 51 56 66 69 69 65 64 63 63
17 10 10 13 12 12 14 20 18 18 18 16 18 30 25 25 30 33 38 42 44 74 68 77 81 87 90 89 92 91 90 86 78 73 74 70 64 58 56 54 48 43 39 42 50 56 58 60 62
15 13 13 13 14 14 16 15 15 17 17 16 15 32 37 32 30 30 32 35 39 59 58 63 67 69 71 70 70 73 74 69 60 57 56 55 56 54 48 44 34 30 33 36 39 41 39 40 43
13 10 15 14 16 15 15 13 15 19 17 14 17 28 38 31 29 29 28 29 35 50 49 46 46 43 43 47 52 56 56 57 56 54 54 56 55 52 50 45 39 33 32 33 33 31 30 30 30
16 15 14 14 16 17 18 15 13 12 14 14 14 30 32 29 32 28 26 28 37 39 44 51 40 34 38 43 48 51 52 53 50 50 50 50 54 54 52 47 34 34 33 37 38 34 31 27 23
10 10 12 15 16 16 13 12 10 11 16 10 11 24 32 33 32 29 26 26 32 39 43 47 48 55 61 44 43 45 44 45 46 54 55 64 71 66 65 61 53 44 36 46 49 50 43 39 41
6 10 13 11 11 10 8 7 7 6 13 11 15 16 27 33 33 30 27 26 29 37 42 43 45 46 58 52 45 54 44 56 64 68 61 65 68 68 70 57 61 60 61 59 61 60 60 57 60
7 9 8 5 6 6 6 6 6 7 12 11 15 22 34 36 34 30 28 27 31 39 41 48 49 48 42 43 50 54 54 61 64 63 63 63 59 59 57 61 64 64 64 59 65 61 61 66 64
6 8 6 5 6 4 5 5 4 7 9 9 14 18 32 36 34 29 25 26 32 38 39 56 53 49 46 39 44 46 49 48 57 63 64 60 57 56 55 53 57 53 53 63 54 59 56 60 63
7 6 5 5 5 4 4 4 5 5 7 8 11 14 28 29 29 28 25 26 29 34 37 54 55 52 48 48 44 44 46 45 47 49 57 55 53 53 51 48 46 42 40 41 47 48 49 49 51
7 6 5 5 6 6 7 6 8 6 6 7 9 17 24 26 27 27 26 25 27 32 34 45 49 47 51 40 49 51 48 51 42 48 50 52 54 52 49 46 42 39 39 39 40 42 44 46 42
6 6 6 6 8 8 8 8 9 8 6 7 10 16 21 24 25 26 26 25 27 28 35 43 50 43 41 45 51 53 49 43 42 40 42 49 52 50 47 45 44 42 40 40 41 44 47 50 50
7 9 9 9 10 10 9 11 10 8 7 8 8 11 16 20 20 23 23 24 24 24 29 49 54 49 38 42 49 46 37 36 37 37 40 44 47 48 49 49 46 44 42 43 43 44 43 42 44
9 9 12 10 10 11 10 14 9 8 9 9 9 9 10 16 17 20 23 23 23 27 40 74 68 42 38 41 40 36 39 38 39 38 37 40 44 45 45 46 45 44 45 45 47 46 46 46 43
11 12 13 14 9 11 11 14 9 9 10 10 10 10 10 11 16 17 21 22 24 24 33 49 47 40 37 41 39 39 39 39 35 32 34 38 39 40 44 46 46 45 46 49 49 49 49 50 49
15 10 9 9 11 9 9 10 11 10 11 12 10 10 11 11 13 18 18 20 22 24 27 38 44 43 46 39 39 35 34 33 33 33 36 41 43 45 42 43 43 42 45 45 45 47 45 45 47
10 9 9 12 12 12 11 12 12 12 11 13 12 13 13 15 23 29 26 26 27 31 29 48 41 38 36 35 32 34 36 33 35 36 37 36 38 42 42 41 42 39 40 41 40 41 42 43 45
11 12 12 12 12 12 13 12 13 14 15 15 14 16 20 23 24 25 28 32 38 40 44 44 40 33 32 34 34 35 36 36 34 39 38 39 41 42 41 37 36 41 44 44 45 47 47 43 42
14 16 22 20 16 13 13 15 16 15 15 16 17 18 19 22 26 28 34 37 37 36 33 35 37 39 37 33 36 37 36 36 39 42 42 44 45 49 37 34 36 41 45 46 45 46 45 59 53
20 21 21 19 19 20 13 20 18 17 19 20 21 22 21 20 21 25 33 38 39 38 36 36 35 35 38 35 39 41 41 44 46 49 53 51 43 38 36 36 38 41 48 46 50 54 54 57 60
24 22 21 20 21 19 16 20 22 17 20 23 24 23 25 27 27 29 31 36 40 41 40 37 37 38 40 41 44 46 50 54 52 46 43 39 42 40 38 39 40 46 47 49 52 52 56 67 73
21 23 21 22 24 42 19 22 33 23 23 25 25 26 26 27 28 28 31 36 40 41 41 39 36 35 38 44 45 46 42 42 42 43 44 46 44 42 43 44 46 51 52 51 58 67 68 72 73
19 24 46 59 52 50 24 22 32 23 24 24 26 27 30 30 31 29 29 32 35 37 38 38 40 39 37 37 40 41 42 43 46 47 50 48 47 49 48 47 47 51 54 58 58 62 78 82 83
24 25 59 53 61 44 20 21 32 24 23 23 24 25 27 31 32 31 30 32 34 35 36 39 42 42 41 42 44 45 45 46 49 50 48 48 49 49 47 58 58 60 61 61 63 68 76 81 82
29 34 23 42 56 61 25 28 26 24 25 24 24 25 26 28 29 29 28 31 33 34 35 38 41 44 43 45 46 45 48 51 50 46 46 47 55 61 60 64 71 71 75 81 84 86 82 83 89
24 21 38 48 61 44 25 27 43 30 28 25 24 24 24 26 28 30 29 31 33 36 39 41 43 46 49 48 46 48 50 48 47 46 47 59 61 60 66 74 80 83 82 85 88 92 88 80 78
28 30 29 25 41 52 51 33 22 26 25 26 26 24 26 28 30 32 33 36 37 40 41 47 51 53 54 52 51 49 46 45 46 47 57 60 63 64 63 64 71 75 78 84 69 65 73 78 66
24 27 26 61 43 53 57 42 24 26 31 29 28 29 31 34 36 36 39 41 41 44 49 51 56 56 55 57 52 47 44 45 47 52 54 53 56 60 59 56 56 56 56 55 57 64 65 63 68

GFSSGP_925_rhum_012.txt.gz
RH
6 4 17 18 22 25 25 21 28 38 46 44 42 51 60 58 59 84 86 83 88 86 82 77 76 76 74 76 80 82 83 84 82 78 72 69 65 56 43 38 30 23 26 37 45 50 54 56 57
6 14 20 21 26 28 24 26 43 39 37 38 40 45 60 85 80 91 91 96 83 86 81 79 76 76 78 80 81 80 80 76 74 72 70 61 51 43 37 29 19 19 26 30 33 34 36 40 41
10 16 17 22 26 26 28 26 28 32 31 33 42 41 45 65 74 78 83 85 79 82 82 81 80 79 77 76 74 73 73 77 70 56 53 49 45 40 36 25 19 23 25 25 26 26 26 26 26
18 17 16 18 20 17 25 27 28 36 37 36 41 49 41 47 62 83 93 81 77 83 83 81 82 81 80 76 73 74 76 69 58 47 46 47 43 40 35 26 20 20 22 22 22 22 22 24 24
26 19 20 19 20 26 23 23 23 31 45 43 39 49 50 74 76 82 84 70 71 88 84 86 87 83 83 83 80 71 64 52 44 44 47 45 38 35 33 20 17 18 22 24 26 25 24 24 23
20 16 19 21 20 25 21 23 24 42 43 42 45 47 47 75 85 84 69 70 70 86 92 91 79 71 64 61 57 50 44 42 42 43 42 46 43 45 33 46 45 32 35 48 46 47 48 40 35
20 20 20 18 21 28 19 17 25 42 48 48 39 49 43 53 69 51 56 57 68 73 66 60 51 48 46 44 40 40 39 38 39 39 50 57 57 52 54 56 56 56 55 52 53 57 54 51 50
19 18 17 15 23 23 13 11 17 23 29 38 36 52 47 39 60 57 50 45 48 45 40 40 37 30 26 32 35 36 36 42 42 60 62 60 59 58 60 60 61 58 59 57 54 57 59 56 54
13 19 18 14 18 17 12 13 10 20 33 36 33 41 34 42 50 53 56 54 46 43 43 50 50 34 30 26 33 42 58 57 60 64 68 67 62 61 63 64 65 62 61 59 54 54 58 58 55
16 18 15 11 13 12 9 8 9 26 48 52 51 39 36 37 40 46 52 62 63 61 54 55 54 46 46 40 55 56 53 59 59 65 66 66 65 68 66 66 59 55 53 49 49 51 53 54 54
11 13 8 9 10 9 8 8 9 28 44 48 48 45 38 34 35 39 44 50 53 52 55 56 51 51 48 48 51 54 58 60 59 64 62 63 64 63 58 55 46 44 42 41 45 49 46 43 47
8 8 7 7 7 7 8 8 9 14 22 42 39 38 38 40 37 34 35 46 52 52 52 50 48 50 47 51 51 54 60 65 66 64 64 58 57 54 50 47 43 43 42 43 42 42 42 42 45
9 8 7 10 11 9 7 6 7 11 27 40 39 40 41 39 37 30 30 36 49 54 53 51 52 50 48 48 52 53 55 59 66 62 55 46 53 50 48 48 47 47 48 48 48 47 46 45 48
9 8 7 8 10 10 9 10 10 10 31 47 44 45 43 41 38 36 34 34 49 58 54 49 45 48 51 51 52 52 52 46 52 48 47 36 37 48 49 49 50 47 50 50 49 50 49 48 54
10 9 9 9 11 11 12 13 12 10 29 49 48 47 45 42 39 37 34 32 47 58 53 45 38 44 41 52 53 49 43 44 43 42 42 44 46 49 51 48 43 38 38 41 42 45 52 50 47
11 15 15 13 14 12 10 16 14 12 20 37 44 43 42 42 38 36 34 35 54 60 58 45 37 47 50 53 50 53 37 39 41 43 46 49 51 51 46 37 35 38 39 38 38 41 43 42 42
19 17 18 15 16 14 14 18 16 13 13 18 26 34 36 37 44 39 36 50 62 60 56 50 50 55 50 53 48 41 41 42 40 44 46 46 46 44 42 40 40 39 39 39 40 40 40 38 37
19 20 21 19 16 16 15 20 20 16 14 24 28 48 59 64 67 72 64 80 86 75 62 56 59 56 54 52 48 46 42 43 41 40 40 40 41 41 43 43 41 40 42 41 39 39 38 37 40
17 22 23 18 14 14 22 30 30 30 43 46 52 59 55 54 54 66 77 86 82 79 75 70 75 64 59 45 47 39 43 39 39 42 43 45 43 44 44 41 40 42 43 44 44 43 42 40 42
26 26 27 22 19 15 25 29 30 33 37 44 51 56 56 52 52 56 64 65 64 66 67 54 44 44 42 44 41 40 40 41 40 44 48 46 43 40 39 39 40 42 43 43 44 46 52 55 58
35 32 27 24 22 20 26 29 34 34 36 38 43 51 55 57 56 55 58 51 46 43 39 36 37 37 37 36 35 37 39 41 45 48 46 47 43 40 40 41 41 42 45 51 52 51 54 66 66
38 28 26 26 29 28 21 43 32 40 42 43 49 56 55 55 56 51 53 49 41 38 37 36 35 36 36 37 38 40 46 50 48 50 51 46 43 44 44 44 44 46 52 59 66 70 67 66 71
31 25 26 26 33 34 31 44 36 38 44 48 50 54 58 56 54 56 52 43 41 40 38 38 38 40 40 40 42 46 46 42 51 52 48 47 48 48 49 52 52 54 58 64 66 71 86 86 85
22 29 40 38 44 59 41 47 48 46 42 44 46 49 53 58 59 54 48 44 41 39 39 39 43 43 42 47 50 47 48 52 50 49 48 48 52 54 54 58 57 58 63 69 75 77 80 87 94
34 49 69 68 74 67 42 54 52 41 39 47 52 52 50 53 59 56 49 45 44 45 45 47 48 52 50 50 49 50 51 51 51 52 52 58 60 57 59 49 47 55 56 62 64 66 69 62 72
33 43 72 62 70 61 42 58 49 41 43 43 41 47 47 49 52 54 52 48 50 51 50 51 50 50 49 49 50 52 51 52 55 57 57 62 61 58 46 42 44 46 50 56 58 57 56 61 62
34 43 36 62 67 76 57 44 35 36 38 36 39 41 46 51 55 56 55 54 51 50 52 52 52 53 53 54 53 48 48 50 51 52 55 57 57 52 42 41 43 52 54 51 52 49 45 47 55
27 28 54 66 58 53 50 53 57 45 44 43 55 54 56 57 56 57 54 54 56 53 46 43 45 52 53 51 47 48 49 48 48 49 50 54 54 50 44 43 48 49 38 39 38 39 42 55 62
40 41 44 49 66 72 78 61 47 51 49 59 58 58 59 60 59 61 54 49 45 42 41 42 44 45 50 47 48 52 54 52 49 48 51 52 52 50 46 51 44 36 37 38 39 40 46 54 54
28 37 47 69 54 82 81 59 42 50 51 54 54 54 54 56 60 57 54 50 46 42 39 38 35 31 39 44 51 54 57 55 49 51 54 56 58 49 45 40 35 34 35 37 39 42 49 52 52

GFSSGP_925_rhum_015.txt.gz
RH
7 7 18 17 23 26 26 22 36 42 57 52 54 59 81 91 80 86 88 92 85 90 85 79 77 76 75 75 77 78 80 81 78 70 65 57 45 38 30 20 18 24 45 55 42 43 45 48 49
6 18 19 23 28 25 26 34 50 48 48 42 44 51 68 90 86 94 97 96 91 87 84 79 76 76 77 80 82 84 84 78 70 66 56 46 39 32 25 17 19 20 23 25 25 27 28 32 31
10 19 17 22 29 29 27 32 46 47 44 38 44 42 57 91 89 89 96 94 95 89 83 79 76 78 81 83 82 80 76 71 65 55 45 40 35 32 25 17 18 20 21 22 23 23 24 25 25
18 18 16 20 22 20 22 31 36 42 40 40 51 54 47 67 80 85 99 94 88 88 86 82 79 79 79 78 74 72 72 62 50 43 42 38 35 32 25 17 17 21 22 26 28 26 26 25 24
25 20 20 20 18 25 26 29 38 40 45 44 43 52 62 90 81 95 99 96 89 92 88 84 82 80 76 72 74 71 59 48 43 40 37 34 33 28 22 28 23 27 45 46 48 50 46 40 47
22 20 21 21 19 28 23 28 44 46 45 49 56 54 59 94 83 96 98 99 99 89 94 89 83 79 78 76 64 52 47 42 38 35 39 43 39 41 50 53 51 52 51 51 54 53 49 49 50
21 20 21 18 35 33 27 21 46 45 48 47 43 57 65 94 96 97 94 99 99 89 88 86 78 67 59 51 47 45 40 35 35 39 55 56 52 56 58 59 56 54 54 51 51 50 51 51 50
21 20 18 17 31 40 28 15 32 44 45 39 38 57 85 69 96 91 87 83 86 88 70 55 48 46 44 43 41 37 34 38 43 57 60 60 58 60 62 63 62 60 59 55 53 54 52 51 50
16 22 22 16 30 23 17 15 17 32 44 42 44 43 61 82 89 96 100 95 82 66 43 37 32 29 32 36 33 36 41 45 61 65 65 63 62 63 66 66 66 60 56 57 56 55 54 51 47
21 26 20 12 17 25 18 24 30 43 50 54 49 45 60 77 83 83 86 87 70 53 46 46 35 31 28 30 39 54 56 62 67 69 67 65 66 68 66 62 61 58 53 49 49 53 51 46 45
16 16 10 9 12 12 12 13 20 51 51 51 48 52 56 67 64 64 65 52 48 45 53 53 42 41 36 49 54 57 63 60 63 65 63 64 64 64 59 55 48 48 47 46 45 47 48 47 48
15 10 9 8 12 8 10 9 28 22 41 46 39 43 47 51 54 56 60 59 58 54 55 56 49 47 46 52 53 54 56 59 63 60 60 57 58 56 51 46 46 48 51 51 52 51 52 51 52
11 8 8 10 9 8 7 8 11 13 41 42 38 38 41 43 45 48 46 51 57 61 58 56 55 50 53 51 54 56 58 63 66 63 60 55 54 51 48 48 49 50 49 47 46 45 44 43 42
10 8 9 11 11 8 9 10 11 24 52 45 40 38 37 37 38 40 46 51 58 59 56 54 58 53 55 54 54 54 57 58 65 61 56 46 53 51 51 50 50 44 39 37 36 37 40 47 48
10 9 9 10 11 11 12 13 13 24 50 49 44 41 42 38 35 36 38 46 54 57 55 60 59 52 51 52 52 53 54 50 55 58 55 51 51 53 54 47 37 35 37 39 39 38 40 41 40
13 15 15 12 13 14 11 14 13 37 55 55 51 50 49 49 47 42 38 36 52 59 67 65 63 61 66 70 68 63 50 52 52 53 51 53 55 52 43 39 41 41 42 41 40 40 40 38 37
20 18 16 15 15 14 13 17 16 21 54 58 51 56 52 70 77 56 46 38 53 73 79 71 66 67 74 72 72 59 50 44 48 53 49 46 44 43 43 43 43 42 42 43 43 41 42 41 38
17 18 19 18 16 16 16 23 32 28 36 32 76 75 74 81 89 96 86 78 80 82 80 78 76 69 62 62 70 48 47 45 45 43 43 42 41 42 43 42 41 42 42 40 40 42 41 43 47
17 23 22 19 16 29 36 42 47 57 69 74 72 71 76 77 81 87 92 87 81 77 77 74 74 76 64 54 44 46 48 46 45 45 45 48 43 40 38 39 39 40 40 40 40 44 47 46 53
24 25 26 23 22 31 38 44 47 48 60 66 64 68 71 76 72 73 80 79 77 72 63 59 65 53 47 50 53 48 45 45 53 52 48 45 43 40 41 40 39 39 40 43 49 60 67 65 66
35 30 26 25 25 29 34 42 45 43 54 60 65 62 62 71 74 71 74 69 66 44 39 40 40 40 39 40 38 38 41 45 51 51 47 44 43 42 42 44 45 46 50 56 64 70 73 81 73
35 28 27 26 30 43 28 55 43 47 60 64 67 72 71 68 64 61 58 47 39 37 36 35 36 37 38 39 38 38 42 47 54 55 48 48 48 50 50 50 55 55 52 52 57 64 71 80 91
30 27 27 27 36 36 34 54 49 46 59 63 66 66 62 59 58 60 52 44 40 39 39 39 40 41 42 43 45 49 54 54 59 52 50 56 54 55 62 66 57 53 49 49 56 62 72 78 81
24 35 44 51 48 62 46 51 53 54 52 55 54 60 59 61 62 58 51 49 50 47 47 49 47 46 46 49 51 51 54 53 51 50 52 55 58 60 66 64 50 42 35 37 50 56 60 65 65
36 46 67 68 73 72 48 55 54 43 47 52 57 57 61 64 67 65 57 55 55 54 54 50 49 53 51 50 49 50 49 49 49 50 53 54 56 63 64 52 40 32 36 42 48 51 51 50 54
36 43 74 55 70 60 47 60 55 47 49 48 50 55 60 65 59 60 61 60 57 53 51 50 50 51 52 53 50 44 44 46 48 50 50 53 56 59 58 45 37 37 40 44 47 46 41 42 48
34 46 41 70 71 78 63 46 40 40 52 51 53 55 60 68 67 66 64 59 57 54 51 49 51 52 48 44 46 46 47 47 47 48 50 53 60 61 51 52 55 51 51 47 47 42 44 53 50
31 35 53 67 55 54 56 58 64 51 49 48 61 66 68 65 67 67 65 59 48 42 41 44 46 44 46 48 49 53 53 54 54 53 51 54 59 59 56 61 64 56 42 38 37 38 39 41 45
40 41 50 57 69 70 77 68 53 51 55 64 70 68 68 69 66 65 60 49 45 43 44 42 39 40 46 45 45 50 55 49 42 54 59 66 66 63 67 68 59 55 37 37 36 37 39 44 53
32 38 45 67 57 84 80 60 46 56 61 61 62 62 66 64 65 59 55 50 47 43 42 31 32 28 27 26 26 26 28 34 39 65 64 61 57 59 68 62 66 60 38 36 37 40 47 51 54

GFSSGP_925_rhum_021.txt.gz
RH
15 9 15 20 16 19 20 17 33 55 68 61 56 60 70 75 77 83 99 91 78 93 97 84 75 69 67 68 70 72 68 62 52 42 35 28 21 22 30 40 64 76 77 64 51 30 24 22 21
9 14 21 21 17 19 20 33 56 58 61 64 59 61 63 68 81 95 93 93 86 87 93 90 76 70 70 72 75 74 66 58 48 40 32 26 21 22 24 31 38 42 46 38 27 24 28 37 38
14 22 17 19 24 18 23 48 53 53 47 42 55 61 81 75 85 92 96 98 86 91 88 83 77 73 75 78 80 70 65 53 42 36 32 27 21 22 25 27 36 46 52 50 38 39 39 38 41
20 19 16 18 18 18 22 45 45 54 61 57 51 50 73 84 76 73 96 99 90 86 86 82 78 79 80 84 79 67 60 47 39 36 33 28 21 21 25 45 49 49 47 44 44 40 38 33 33
21 17 18 18 17 16 19 39 41 44 46 48 50 47 75 94 97 99 100 90 83 85 84 83 82 80 84 89 68 62 54 43 39 37 35 23 26 31 47 50 48 49 49 49 46 45 46 46 41
20 17 19 19 28 31 35 38 44 40 39 44 51 66 87 99 99 99 89 85 81 88 93 90 84 85 85 69 68 61 48 40 40 39 32 40 48 48 52 53 51 51 51 49 48 47 47 48 46
20 17 18 19 36 33 34 42 44 41 46 51 50 77 92 98 97 100 98 97 95 98 97 94 92 84 73 71 73 59 46 42 42 43 40 52 57 56 54 57 56 53 51 49 48 45 42 43 44
19 18 20 23 37 40 25 32 41 42 49 42 50 74 90 95 100 100 100 100 99 98 100 92 87 84 81 82 72 56 46 44 52 53 52 57 60 62 59 56 56 54 49 47 47 45 43 41 42
18 19 19 26 37 40 29 27 32 40 43 44 47 67 74 98 100 100 100 100 100 98 99 99 87 85 83 78 66 50 45 46 60 59 60 61 64 65 63 59 56 50 48 46 47 49 46 45 42
19 22 18 19 34 50 44 24 32 43 46 45 75 92 96 100 98 96 98 96 99 99 98 98 87 85 72 62 54 49 51 52 63 65 65 66 68 68 66 62 55 51 46 46 48 48 49 47 43
21 20 16 13 30 35 32 28 38 45 49 42 62 91 92 95 91 88 89 90 96 99 93 84 75 64 59 57 53 52 50 62 67 69 69 68 70 70 69 57 50 48 50 50 51 51 47 45 42
18 17 12 9 18 27 26 24 42 38 35 38 59 84 90 89 89 85 88 94 92 95 87 67 62 57 54 52 54 57 65 70 72 72 72 73 71 65 59 50 52 52 50 47 45 43 40 41 40
19 15 11 11 12 18 18 24 37 34 41 49 71 83 84 80 81 83 81 81 81 77 66 58 57 55 53 58 63 70 72 74 80 79 78 69 64 58 53 52 52 48 42 38 39 40 40 40 39
16 10 10 11 10 11 15 14 20 26 45 63 72 74 72 67 69 66 62 61 68 67 65 64 60 58 61 68 70 76 82 82 85 89 84 76 65 58 57 52 44 40 39 40 42 41 41 40 38
11 10 11 13 11 13 12 13 18 42 43 59 67 64 63 59 58 55 56 59 62 66 72 69 72 68 66 73 76 72 56 50 61 86 85 68 65 60 50 45 43 42 42 42 42 40 39 44 44
13 16 14 13 13 15 10 13 32 42 46 52 56 53 52 52 54 59 51 57 68 78 83 86 86 79 76 79 80 73 75 69 78 76 74 65 56 51 47 44 44 45 45 43 40 40 49 49 50
20 16 17 15 26 15 17 27 45 46 51 55 52 52 56 67 78 92 74 67 72 80 81 91 90 88 82 79 71 86 78 65 63 59 53 51 46 44 43 43 44 43 41 39 38 45 44 51 51
18 18 18 18 24 33 39 54 57 55 54 62 62 68 72 75 82 97 98 91 93 99 93 87 85 77 83 77 92 76 59 54 52 54 49 49 50 48 44 41 40 41 40 41 49 53 59 61 65
17 18 20 24 31 48 62 64 64 64 62 67 69 70 77 79 94 99 100 99 99 99 94 88 93 85 80 78 68 54 54 59 52 47 47 46 45 44 42 42 44 49 58 57 52 63 62 50 66
24 26 31 34 37 45 54 64 65 64 68 69 70 75 80 88 88 94 94 96 96 99 94 87 81 77 72 52 50 53 55 57 52 50 48 47 45 45 45 46 54 59 61 53 47 48 57 60 72
33 30 30 34 38 40 43 49 63 65 68 72 74 77 83 86 88 86 87 90 91 94 93 83 58 52 50 52 56 52 52 60 61 55 51 48 48 48 49 49 56 53 52 70 70 74 69 53 61
36 30 35 39 34 35 35 28 57 69 74 76 77 79 81 83 79 72 63 66 73 77 76 59 55 55 52 48 48 50 61 65 60 53 50 50 50 48 50 54 61 60 57 54 64 62 61 57 50
36 31 31 30 33 34 36 36 51 66 74 75 71 73 73 70 63 52 52 55 58 50 49 48 48 48 50 52 52 51 51 50 49 49 49 48 48 47 51 53 58 58 49 36 34 49 60 60 54
39 38 42 44 41 40 43 36 43 69 62 65 63 64 63 59 53 52 58 60 60 59 53 52 53 52 50 49 47 40 36 39 47 47 49 50 49 49 52 57 65 57 40 44 45 36 37 57 59
36 39 49 53 55 48 48 48 35 42 51 55 58 58 57 54 54 54 54 54 63 67 61 55 52 52 49 41 38 38 42 44 48 54 60 61 65 66 73 68 74 52 52 57 47 60 65 61 57
39 39 58 52 61 53 45 50 37 43 41 50 50 51 54 56 57 54 57 63 63 64 59 52 55 51 41 40 39 44 47 51 56 58 53 43 60 66 62 69 74 51 65 57 62 75 74 73 66
39 39 43 60 68 61 46 44 40 52 47 54 56 56 56 56 57 57 64 63 60 60 54 47 45 44 44 37 45 48 49 45 27 21 25 35 32 32 49 71 66 63 66 64 71 73 74 71 60
34 39 44 48 51 46 42 51 41 56 52 55 58 57 57 57 60 60 61 64 62 60 49 41 40 41 43 49 36 29 23 22 20 21 24 29 34 33 43 71 77 77 72 73 75 73 69 61 57
40 43 52 47 52 44 48 33 44 45 48 54 53 53 58 60 60 59 61 59 56 53 53 49 46 45 41 29 26 23 23 24 26 30 32 35 38 47 59 78 82 81 72 74 82 72 62 52 64
36 39 43 49 47 63 57 36 36 47 47 50 51 55 57 58 59 59 57 55 54 56 54 47 41 32 27 26 25 24 25 26 28 33 39 43 44 48 68 75 82 83 74 87 73 60 60 63 67

GFSSGP_925_rhum_024.txt.gz
RH
28 20 14 15 16 14 16 14 31 49 57 46 43 50 54 56 62 75 78 74 81 86 86 81 66 66 66 68 70 71 70 64 54 40 34 24 24 27 40 47 51 62 66 63 41 27 31 33 34
13 13 15 12 14 15 15 17 24 46 47 42 46 44 48 54 61 76 76 85 88 91 82 78 68 69 70 70 73 72 65 54 42 33 25 22 26 30 37 43 47 51 58 50 38 39 40 40 41
16 18 12 11 11 14 16 31 40 38 32 32 44 44 55 53 64 72 88 95 99 89 78 80 70 72 71 72 75 69 56 44 37 31 26 26 28 30 34 44 51 52 48 44 36 32 31 32 39
12 13 11 12 12 11 16 32 35 35 36 31 33 64 56 63 64 61 89 94 90 90 83 85 76 74 73 77 74 68 54 45 39 36 29 25 26 30 50 51 50 47 46 43 45 44 40 32 31
13 11 12 12 12 11 13 29 33 31 31 29 30 41 58 74 64 66 93 80 88 93 87 92 79 76 77 77 81 67 52 46 45 42 32 26 29 50 51 49 47 46 45 46 47 46 46 44 43
10 11 11 13 17 20 14 26 29 28 25 28 35 39 71 79 78 96 96 92 94 88 89 93 81 78 76 89 77 62 52 49 44 39 30 38 44 53 50 49 50 50 49 46 45 46 45 45 45
12 9 11 15 25 28 26 28 29 28 30 34 35 48 80 81 91 90 88 90 88 85 88 91 87 82 84 84 74 59 49 47 45 40 48 52 52 54 56 55 54 54 51 48 46 45 44 42 42
13 10 12 19 26 36 33 32 33 42 36 37 37 48 91 75 88 85 82 84 85 87 91 95 92 89 87 95 74 56 52 51 51 46 55 60 59 58 58 59 59 58 55 51 47 43 42 40 38
13 11 13 24 26 28 23 30 30 30 38 40 42 47 55 82 90 84 86 87 92 94 99 98 81 82 80 77 87 64 52 53 57 57 57 65 65 69 67 60 55 52 50 49 47 46 46 44 45
14 12 12 17 22 26 24 25 25 33 39 41 57 60 80 91 83 80 85 90 92 99 100 98 97 95 87 76 80 71 64 65 70 72 77 72 79 76 69 63 48 46 46 47 48 49 48 46 42
14 14 11 12 21 19 18 21 18 25 38 33 43 79 85 85 82 81 81 86 89 93 99 99 97 93 74 67 63 58 61 72 78 85 84 84 82 82 73 60 54 58 52 54 54 51 49 56 51
16 12 11 15 21 20 19 19 25 22 25 26 35 62 77 77 81 68 75 70 78 84 71 74 78 81 75 59 56 66 70 77 80 86 93 85 76 78 72 53 56 59 55 57 52 48 55 53 50
16 12 10 9 18 25 21 21 23 26 28 31 48 58 60 60 51 49 50 52 55 56 61 65 69 70 69 68 74 80 86 91 96 89 92 85 72 72 62 64 56 56 53 51 49 49 49 46 43
13 12 9 9 13 20 21 21 21 25 32 42 52 52 52 47 44 44 46 45 47 47 60 67 64 68 70 75 83 84 71 60 62 67 66 78 71 76 66 60 55 54 53 52 51 52 45 44 45
10 10 9 9 11 16 16 17 19 32 35 42 45 46 46 40 42 38 38 38 42 46 65 73 72 73 80 86 84 59 60 51 68 73 64 68 70 69 64 58 58 62 60 55 51 49 45 44 42
10 10 10 12 10 11 13 14 24 36 35 39 42 46 46 43 41 40 41 37 40 50 70 86 88 89 93 97 72 67 65 74 69 72 76 70 60 55 64 67 66 63 57 52 48 48 45 43 44
11 10 11 14 15 11 10 13 26 37 33 37 42 42 41 46 48 52 45 43 49 59 80 88 88 96 87 79 80 80 74 81 68 66 61 56 56 53 50 59 62 58 52 52 50 49 52 51 49
11 12 9 11 19 11 14 25 27 39 34 35 36 38 41 44 50 66 59 55 60 71 83 92 99 90 85 66 67 74 71 61 67 63 61 61 62 64 58 61 61 53 52 55 60 60 56 50 47
10 12 11 16 26 26 27 27 31 40 39 41 38 41 43 44 60 71 72 73 72 79 88 96 99 100 93 93 83 72 68 72 63 60 62 61 61 60 56 51 57 61 55 63 59 50 42 43 45
13 13 18 23 27 25 27 33 35 36 42 41 41 42 44 56 62 72 70 78 86 88 91 92 89 86 76 66 57 55 59 58 55 58 63 59 58 55 55 57 54 58 48 55 58 58 51 42 44
20 18 23 19 27 26 26 32 37 43 44 48 49 44 50 58 63 63 68 77 84 85 84 77 74 72 55 56 63 64 63 58 53 54 54 58 58 54 54 56 51 48 47 42 57 56 55 48 38
21 22 21 26 22 20 24 19 36 43 48 49 53 54 68 64 58 58 62 68 73 77 75 60 57 54 61 58 51 50 47 48 55 53 54 52 56 51 48 50 56 55 53 55 53 49 55 49 40
26 25 22 22 21 23 24 21 33 45 49 53 57 57 58 51 47 47 50 58 64 73 61 56 55 55 56 58 56 52 51 50 48 47 48 49 48 52 54 53 58 63 64 58 59 56 53 48 47
25 26 25 24 24 29 21 25 16 36 34 48 54 54 54 46 40 39 44 47 51 55 56 55 51 53 54 52 51 49 43 37 33 38 38 35 39 42 47 57 63 65 64 61 61 62 58 57 50
26 25 29 38 36 31 32 29 16 22 33 40 49 48 48 43 39 40 42 40 45 52 56 53 50 52 52 47 40 39 40 41 36 39 38 42 34 34 38 47 47 54 62 66 65 60 61 60 50
25 24 27 28 30 26 34 29 23 27 28 35 38 39 40 40 39 38 38 41 47 52 52 49 49 45 42 38 42 49 43 38 38 38 34 33 36 36 39 42 49 58 66 69 61 61 62 64 61
29 28 30 40 54 47 24 26 26 32 31 37 38 37 38 38 39 38 41 45 49 50 52 49 39 38 43 44 44 52 48 36 32 35 38 33 35 37 37 44 52 58 65 65 62 58 64 64 62
27 27 34 34 46 33 21 25 19 38 35 38 40 39 36 35 37 39 44 48 48 49 50 44 44 47 44 54 49 40 34 34 35 37 35 36 38 41 42 44 48 54 56 59 61 59 61 62 55
31 30 31 28 35 27 24 13 24 27 30 36 38 36 35 36 38 41 44 49 49 48 44 53 52 56 57 44 38 36 32 34 36 36 36 40 46 46 48 53 56 56 55 58 64 68 67 58 50
27 26 24 27 31 42 41 20 23 32 30 30 34 35 34 36 38 41 46 48 45 43 47 54 52 53 36 38 34 32 33 33 34 35 40 46 50 50 51 58 59 58 62 79 92 70 53 54 54

GFSSGP_925_rhum_027.txt.gz
RH
24 27 12 9 14 13 14 12 15 49 41 38 36 43 53 50 60 69 60 68 66 65 67 70 64 64 63 66 67 68 68 62 49 41 34 28 36 38 36 35 39 62 65 62 70 63 41 38 42
19 9 7 10 14 14 11 9 14 41 35 37 35 36 38 54 56 70 70 73 71 70 74 80 66 67 69 72 72 69 63 50 41 32 27 25 32 33 34 42 52 61 69 73 69 46 36 42 49
13 8 9 11 12 13 13 22 32 35 32 30 36 30 40 47 47 62 72 80 82 80 78 82 65 68 73 76 74 70 58 47 38 31 27 28 36 35 47 54 59 68 72 68 50 31 30 31 30
9 7 10 13 13 10 12 32 34 27 27 25 33 45 39 48 48 61 72 81 83 78 83 78 72 70 76 78 74 66 53 46 42 36 38 46 40 53 54 56 60 62 57 46 42 40 39 38 36
9 8 11 12 12 10 9 27 27 26 31 23 22 37 36 39 47 58 74 80 84 81 90 80 74 74 78 79 72 61 50 44 43 43 42 40 51 50 49 49 48 48 47 48 47 44 42 40 39
7 8 11 12 11 11 10 18 19 32 28 25 27 34 48 45 50 49 64 88 82 88 89 88 78 77 78 77 69 60 51 49 48 36 34 44 52 50 48 48 49 50 51 51 48 45 45 44 39
9 8 9 9 14 19 14 25 26 26 27 30 23 35 51 54 54 69 86 76 61 85 92 88 82 80 81 76 74 62 53 49 41 37 46 51 54 52 50 50 50 50 49 49 46 43 40 38 36
7 9 8 9 20 36 19 24 26 26 40 27 35 56 42 49 61 75 94 82 85 95 88 87 85 91 94 97 71 56 50 45 42 53 55 53 53 54 54 58 51 52 51 49 48 44 42 40 43
9 11 9 10 29 27 23 25 24 22 26 32 36 37 39 60 70 73 84 98 96 94 88 81 78 71 78 89 66 55 48 52 50 56 58 64 61 64 68 63 51 48 45 45 46 45 40 43 47
9 9 8 10 23 45 20 22 26 26 48 45 42 42 55 66 66 66 70 74 80 89 90 78 73 72 63 63 65 59 60 66 65 64 66 60 64 67 61 54 45 44 43 45 44 46 46 46 43
9 12 10 10 18 22 18 19 20 29 37 40 40 61 67 64 61 61 66 71 76 86 92 85 84 71 60 59 52 47 53 58 66 70 76 74 66 65 62 54 51 53 48 52 49 48 44 52 50
12 10 10 9 17 15 14 17 19 44 74 50 34 58 61 63 60 59 62 70 80 83 73 64 64 65 55 49 43 47 54 62 77 86 83 78 65 70 59 49 46 51 47 52 47 45 50 49 46
12 10 10 13 14 14 17 16 18 28 19 23 42 52 52 49 42 44 43 46 56 48 50 54 62 59 53 49 53 60 65 78 78 80 88 78 73 72 64 58 52 52 49 48 49 47 48 45 42
10 11 9 9 14 19 18 16 17 23 20 29 37 36 35 31 30 32 34 37 41 43 49 54 52 54 57 62 70 76 72 77 79 77 82 61 60 66 69 64 64 55 54 57 54 53 48 46 43
11 12 8 9 14 19 19 13 16 22 22 32 31 32 29 26 27 29 32 35 36 42 50 54 58 62 65 77 74 76 80 72 89 85 66 74 72 68 71 66 66 63 63 55 52 49 46 44 41
12 11 14 11 12 15 18 15 20 20 22 25 26 28 28 30 27 26 27 30 32 42 53 62 62 72 74 78 56 55 43 63 68 83 78 82 75 65 67 68 65 53 56 50 49 46 47 47 46
12 14 12 12 10 11 15 15 21 22 19 26 29 32 31 32 29 31 30 28 32 45 64 72 76 89 87 64 58 54 69 66 73 70 68 66 60 58 61 62 63 58 50 51 53 54 54 51 49
14 12 10 11 10 12 10 14 16 20 18 24 27 29 31 32 34 38 34 32 35 46 66 73 84 92 78 77 71 85 75 79 70 69 64 63 63 63 55 58 61 59 53 53 59 61 53 46 39
10 12 8 11 14 10 9 13 16 20 19 23 24 28 31 34 37 47 44 44 47 64 72 83 94 90 90 78 72 70 69 64 62 56 59 58 58 57 55 50 54 56 54 52 56 54 46 39 36
10 11 12 12 12 16 12 13 18 23 22 22 23 26 28 32 44 46 51 53 54 77 82 82 82 88 82 77 70 59 57 54 50 53 59 56 56 54 49 59 54 51 48 43 39 46 48 42 39
12 12 14 14 15 14 15 18 25 24 26 28 25 24 26 32 43 47 51 65 71 79 88 79 78 82 67 52 52 52 53 54 49 51 50 55 55 50 50 51 49 47 45 41 43 46 50 45 42
16 16 15 17 19 19 15 17 20 27 29 32 34 32 33 38 40 44 50 72 79 81 84 76 73 56 50 50 45 47 42 42 48 49 50 48 54 49 43 42 47 50 50 50 48 43 50 50 45
27 16 17 17 17 22 19 16 45 26 28 29 31 33 39 39 41 44 46 57 73 80 72 56 50 48 52 47 47 48 46 49 46 44 43 38 40 40 41 43 46 53 52 50 52 53 54 54 51
19 20 20 19 16 24 14 16 17 25 22 27 32 38 40 40 38 37 42 47 54 61 52 50 47 47 49 50 50 49 45 36 33 37 35 32 34 34 32 36 42 42 44 49 50 52 56 60 60
17 20 28 31 27 28 18 20 14 10 19 22 36 40 40 36 33 35 38 41 48 51 51 48 44 46 49 48 42 39 39 38 42 39 32 33 28 29 31 38 38 40 43 47 50 60 65 58 58
20 18 28 30 26 20 21 19 14 17 18 21 32 36 38 35 32 32 33 35 40 46 47 43 44 46 46 39 37 42 40 39 33 32 33 33 33 32 35 37 39 42 48 48 57 63 61 62 66
20 24 20 27 45 36 16 10 19 22 22 25 32 35 37 34 32 31 32 34 39 44 46 44 44 41 37 42 47 44 41 35 30 33 36 31 33 33 32 40 40 40 43 46 58 62 63 62 59
23 18 26 23 35 32 15 14 14 25 23 26 32 34 34 32 31 30 31 36 40 43 46 47 42 36 44 42 48 42 35 34 32 36 35 34 36 39 41 42 43 46 47 45 45 53 55 56 65
26 24 22 22 28 33 23 15 13 15 20 25 28 30 32 31 31 31 32 38 41 43 47 44 41 42 44 42 39 36 40 32 34 36 34 34 39 42 43 42 44 45 44 44 53 74 76 70 68
21 21 22 31 26 29 39 24 15 16 16 21 24 26 28 28 28 29 34 38 41 44 45 45 45 42 41 41 41 43 33 30 32 33 32 36 41 45 45 42 45 44 43 52 69 65 78 80 68

GFSSGP_925_rhum_030.txt.gz
RH
11 17 24 15 13 16 16 12 24 41 36 33 36 37 45 56 67 87 78 76 66 73 68 59 61 61 62 63 64 67 65 54 43 43 41 40 45 43 41 44 51 68 75 72 66 42 42 48 46
25 22 15 8 16 18 14 25 30 35 36 32 32 32 42 63 57 70 69 64 62 73 77 63 60 64 67 71 72 69 53 42 35 25 31 38 40 35 42 54 58 63 68 61 43 30 28 26 26
22 13 7 9 14 17 14 28 39 34 29 31 32 31 34 50 53 62 72 68 62 68 76 75 67 70 74 76 72 63 47 42 34 27 28 31 36 50 56 60 63 66 73 67 39 34 34 31 26
13 8 7 16 15 11 13 54 61 35 29 25 29 38 31 41 47 58 76 82 74 73 83 72 71 76 79 76 67 55 45 42 34 27 29 34 51 52 56 57 56 64 54 42 38 36 35 34 32
12 8 10 13 12 10 9 25 25 37 48 47 65 35 36 42 55 62 76 82 78 85 76 78 82 80 80 75 58 51 47 41 31 26 27 47 48 46 47 44 44 45 44 44 44 42 40 37 32
10 8 13 14 11 9 9 18 27 43 47 53 58 34 37 41 52 71 79 81 83 85 84 86 88 84 83 72 61 51 48 40 30 26 42 48 45 45 44 45 46 46 44 43 42 40 36 33 39
12 9 10 10 12 16 15 27 45 63 66 38 33 34 48 42 45 65 79 82 86 81 90 96 92 89 86 73 58 49 45 38 25 36 48 46 44 44 45 44 44 44 45 45 43 40 36 41 42
8 9 11 10 8 18 20 26 44 50 52 39 26 36 46 41 57 82 84 83 92 88 87 89 91 90 80 68 53 48 43 34 44 47 47 48 46 46 55 63 45 45 45 43 42 40 35 44 44
6 11 14 10 8 35 52 72 44 28 38 36 29 37 56 56 74 100 98 90 93 92 87 99 85 81 68 58 47 44 44 39 51 52 55 60 64 60 74 49 43 42 41 40 40 39 42 47 49
10 12 11 14 26 49 59 71 66 25 30 27 35 42 55 64 72 87 95 99 82 93 99 85 78 81 71 60 54 47 47 57 58 53 66 70 68 60 59 46 36 41 42 50 48 50 48 52 49
9 12 9 18 32 34 44 55 28 42 46 50 77 61 57 59 62 71 91 94 98 89 85 80 70 70 64 62 57 58 65 68 70 72 69 68 66 68 64 73 53 51 50 57 51 50 51 50 49
11 8 9 11 24 26 35 22 26 26 36 59 64 66 56 51 56 65 72 79 81 82 79 73 67 58 54 50 48 48 63 66 67 69 78 66 70 69 57 53 52 52 50 49 50 50 50 48 45
10 10 9 10 18 16 15 34 37 31 29 52 59 57 48 44 49 59 68 70 69 69 69 66 61 56 46 47 54 64 67 65 78 86 74 75 75 69 66 62 56 52 53 56 54 51 52 48 45
8 11 10 9 16 15 21 39 33 46 33 42 48 41 38 34 32 36 48 51 47 49 58 62 59 51 53 61 68 72 70 80 79 74 66 72 67 64 67 61 54 58 56 58 55 51 47 45 45
11 13 11 9 14 19 23 24 20 25 27 35 34 32 27 25 26 29 36 40 43 48 55 54 54 55 67 70 67 62 54 65 75 70 61 60 74 68 62 63 64 65 56 49 51 49 47 49 49
14 12 17 12 14 18 33 43 17 22 26 27 27 27 25 25 25 29 33 35 41 48 54 54 58 70 74 68 65 56 67 83 83 80 69 75 73 68 66 68 65 55 53 51 53 53 57 56 54
14 18 19 15 12 18 26 33 14 17 22 26 28 27 28 27 25 26 30 31 38 49 59 60 65 76 70 50 62 81 54 65 68 68 65 64 62 60 59 62 63 55 52 53 57 61 60 54 48
20 19 15 14 10 11 18 16 14 15 20 26 26 28 32 30 28 28 27 29 36 58 63 68 79 88 71 62 70 64 65 67 68 65 61 64 66 61 56 56 58 60 57 53 54 57 55 49 44
15 14 14 11 9 11 15 13 12 14 16 26 27 30 33 32 32 34 30 29 36 67 70 73 88 88 85 81 77 76 73 68 64 58 59 58 60 57 55 56 55 53 54 51 43 41 49 50 47
15 16 14 10 11 12 10 11 12 14 16 20 24 28 32 33 38 43 40 40 62 72 85 84 89 82 86 76 68 66 62 62 56 58 60 58 55 55 54 59 55 51 48 45 46 46 48 51 48
14 14 19 14 10 8 12 11 16 16 16 16 19 22 26 32 45 44 45 49 74 76 85 84 86 84 82 72 66 60 57 53 53 57 58 58 55 51 50 46 44 48 50 51 51 50 51 52 51
22 18 16 16 16 19 18 24 42 31 21 20 21 22 25 27 39 41 46 60 70 78 77 79 81 81 76 66 55 53 53 51 49 52 54 56 54 49 46 44 47 51 54 54 54 52 53 52 57
25 23 20 13 15 40 32 37 30 37 34 26 27 29 27 29 36 42 59 73 75 79 82 76 76 67 56 48 48 49 53 51 48 47 43 39 39 41 39 38 40 43 44 45 49 51 54 55 59
18 22 18 16 18 57 30 47 30 32 30 33 25 29 30 38 38 38 63 71 71 79 77 71 65 50 52 48 49 48 46 42 40 39 40 35 35 33 30 35 40 39 40 44 46 50 54 61 63
14 18 36 68 66 49 17 21 22 26 34 68 48 29 36 38 41 42 48 60 70 70 60 53 46 48 49 51 52 45 37 36 43 43 36 34 30 31 32 37 39 40 41 44 48 54 60 63 62
20 16 45 72 82 39 18 21 18 16 16 23 28 34 37 39 41 42 43 46 55 53 52 49 45 47 50 48 42 40 44 43 38 37 34 35 34 32 34 36 40 41 41 42 46 52 58 64 65
19 23 17 24 47 56 22 12 16 17 18 22 32 34 39 37 36 37 37 43 48 50 51 45 44 46 48 40 41 44 40 37 30 32 36 38 33 33 34 41 43 43 45 47 48 47 55 62 64
19 16 29 24 39 38 19 16 28 24 20 21 32 37 38 35 33 34 33 38 41 46 47 44 44 44 42 42 47 46 39 31 34 38 40 36 35 38 41 43 42 42 45 45 45 59 64 66 73
23 25 19 16 29 49 51 23 14 16 17 21 27 33 36 36 34 33 32 34 38 43 47 47 46 41 41 44 47 43 35 36 39 40 37 36 35 40 42 44 43 42 44 44 51 56 54 63 74
18 22 20 54 34 38 53 37 15 15 15 19 21 25 31 33 32 32 31 34 38 43 45 49 46 39 44 45 43 41 38 40 38 34 34 33 36 40 44 45 43 43 44 47 49 62 66 64 72

GFSSGP_925_rhum_033.txt.gz
RH
9 10 18 28 26 28 29 23 39 54 46 44 45 57 75 72 82 83 89 69 64 74 87 94 85 74 64 70 74 69 47 40 40 44 40 37 41 41 41 46 44 52 65 63 39 27 26 35 48
11 25 26 29 22 30 28 53 60 52 41 37 39 45 61 84 73 94 90 76 56 62 86 89 77 63 70 77 74 54 44 34 37 37 32 36 45 49 48 44 50 59 67 61 48 31 28 27 30
13 26 23 17 20 26 26 66 53 43 38 34 40 37 44 79 74 75 80 84 69 86 93 78 64 69 76 74 60 51 37 32 31 31 29 59 57 51 47 53 57 67 74 59 33 32 29 26 26
20 17 13 17 23 19 18 51 50 40 44 49 43 45 43 51 62 75 78 75 79 79 70 69 72 76 75 68 52 42 35 35 32 27 38 62 53 48 44 41 41 42 36 35 34 30 34 34 32
24 21 16 19 20 16 20 36 47 56 57 68 55 46 54 56 65 72 81 82 85 79 78 80 79 79 77 54 44 37 34 30 25 30 42 40 40 37 38 39 39 38 37 36 33 34 40 37 38
23 18 21 22 15 13 54 51 48 50 53 64 58 58 59 66 76 69 86 98 94 87 87 84 82 85 69 53 45 38 28 23 22 39 38 36 37 38 38 39 40 38 37 35 32 37 42 40 37
23 21 19 15 14 13 46 58 68 64 58 48 61 86 66 66 89 91 99 100 97 94 83 87 86 92 79 60 48 33 26 20 30 41 36 36 36 36 36 38 39 39 38 37 34 34 44 44 42
14 17 18 15 14 49 60 59 66 82 58 47 36 61 76 99 100 100 100 100 99 99 91 86 80 88 70 53 38 35 24 26 41 39 37 36 37 39 41 36 36 35 37 37 35 36 42 52 48
12 16 16 15 33 62 68 60 71 69 67 49 36 57 93 100 89 82 96 97 95 95 94 84 84 79 58 50 50 34 27 44 42 43 48 52 57 61 49 34 32 33 35 38 44 47 51 51 48
16 21 16 20 42 48 64 55 56 66 77 53 64 84 99 96 88 95 96 97 100 87 75 90 87 73 61 50 39 32 44 46 49 64 67 69 69 67 56 40 38 48 46 52 51 53 52 50 48
15 17 13 23 37 43 52 51 47 60 63 56 73 83 87 88 91 88 85 81 94 77 58 81 84 63 44 40 41 45 54 53 59 72 74 74 73 69 60 62 52 56 52 58 57 53 54 50 48
15 13 11 30 31 38 38 36 31 41 46 57 66 71 74 89 83 90 88 88 98 95 80 82 80 62 49 36 54 66 68 72 75 79 76 69 73 65 66 63 64 57 56 53 52 52 51 50 46
14 12 11 30 31 41 31 36 35 50 57 45 52 58 67 76 82 90 88 90 92 93 88 79 73 57 46 52 58 67 77 74 76 79 80 73 70 68 64 59 54 54 55 55 55 49 43 44 45
12 12 12 14 32 35 36 37 34 43 55 56 54 59 72 69 71 78 88 88 84 81 76 65 62 50 56 65 68 70 67 82 84 67 54 58 62 54 62 61 55 54 59 52 46 46 48 50 50
14 14 14 10 23 38 43 36 38 42 46 52 58 57 51 60 70 72 75 76 77 74 64 60 53 53 66 66 68 70 79 80 65 52 54 64 75 67 64 58 62 62 52 49 49 52 53 52 53
16 17 21 14 27 31 28 38 32 42 45 61 52 44 39 37 56 59 60 57 65 64 61 56 55 67 67 66 65 66 64 53 58 61 64 74 72 68 64 64 62 52 52 53 56 58 58 56 53
24 26 21 17 22 31 29 33 27 38 45 50 42 37 35 38 42 44 48 52 59 56 56 55 60 68 65 66 71 63 66 66 65 64 67 70 67 62 58 56 51 53 55 56 56 54 52 54 47
29 22 20 24 17 28 32 32 23 33 34 38 40 41 40 37 37 38 43 51 57 54 53 63 72 69 67 64 65 74 78 70 67 62 60 58 57 64 58 53 59 58 58 54 50 42 49 48 50
27 21 21 18 12 25 25 23 21 22 34 40 41 45 47 40 35 31 34 54 61 55 60 72 73 72 60 62 81 82 77 72 65 62 63 62 60 56 60 58 55 54 51 46 49 47 47 50 51
26 23 24 18 13 16 19 21 20 20 27 36 40 45 44 44 47 40 42 64 70 72 73 76 80 76 67 70 78 70 67 63 63 61 59 57 56 55 53 54 53 50 48 50 51 52 51 51 50
29 35 25 17 12 11 12 18 25 19 20 31 35 37 38 47 52 53 67 77 83 81 75 76 76 72 74 68 73 67 64 65 61 60 58 56 55 53 49 45 44 48 52 54 52 54 56 54 52
25 28 28 21 21 25 24 40 40 36 28 23 29 38 40 48 51 52 74 85 91 89 83 82 77 71 74 74 77 66 63 57 56 58 58 57 52 49 43 45 49 55 52 49 47 50 51 52 54
30 25 24 27 29 35 33 41 37 38 26 31 32 31 40 53 54 56 73 84 83 84 85 80 81 76 75 77 68 59 54 53 53 60 56 52 48 46 46 42 39 40 39 39 42 44 49 60 60
26 22 27 35 41 49 33 38 46 51 34 32 29 34 36 51 61 69 78 80 80 78 81 83 79 81 75 70 62 56 53 50 50 43 39 41 37 33 32 33 34 36 34 40 43 47 54 64 64
25 30 55 64 77 67 35 42 38 33 32 38 36 34 43 57 71 80 84 83 80 79 76 80 79 72 58 49 52 52 49 44 39 39 40 35 31 33 33 34 35 37 40 41 42 45 50 58 58
27 31 62 74 85 70 43 49 32 26 26 32 39 39 50 53 64 78 80 77 80 76 78 77 71 53 51 51 49 40 37 38 41 40 34 33 33 33 33 34 37 40 42 44 45 46 48 62 70
31 35 34 67 72 82 46 22 25 25 34 53 52 48 56 60 60 65 72 76 71 68 66 57 50 51 52 51 46 41 40 38 39 36 34 35 34 34 36 37 41 42 43 43 46 46 58 61 59
22 21 38 50 45 46 34 30 39 30 44 48 50 57 55 52 54 56 58 67 66 57 52 49 48 50 51 46 41 43 42 38 32 34 37 39 40 35 36 40 43 43 42 44 46 60 55 52 60
29 29 27 32 52 60 71 42 18 26 29 44 50 50 52 47 48 49 50 53 53 52 52 50 48 49 47 41 44 43 39 33 33 36 37 39 40 37 40 42 44 44 42 44 51 52 53 58 60
21 28 42 65 39 55 74 52 17 18 26 28 36 44 50 45 43 44 44 49 52 51 50 48 47 48 44 45 47 46 38 34 37 39 42 47 38 36 39 43 46 44 44 47 49 53 60 60 69

GFSSGP_925_rhum_036.txt.gz
RH
14 13 18 29 29 32 31 26 22 49 50 44 52 71 82 82 84 78 89 82 100 99 94 82 76 67 63 73 70 49 38 29 28 32 32 34 39 43 45 50 52 51 57 39 28 33 34 33 40
16 24 28 33 26 29 26 28 53 51 43 56 53 64 77 90 89 96 96 96 99 100 100 94 77 61 67 75 60 50 67 57 31 35 38 47 46 39 36 40 41 43 43 33 29 28 29 36 38
17 27 33 32 27 26 27 56 54 46 49 38 41 40 60 93 89 85 88 100 100 100 99 87 64 62 73 65 58 43 50 42 38 49 62 66 54 37 33 34 34 38 36 32 34 34 36 37 42
23 20 19 18 20 19 18 38 53 48 46 53 43 49 57 62 76 80 84 98 98 100 96 72 63 76 73 55 40 30 42 36 36 49 68 75 70 36 32 30 33 33 31 37 37 35 36 36 39
26 24 19 19 18 14 36 30 51 60 63 63 50 57 61 89 83 89 80 86 96 98 79 70 74 72 58 48 37 34 31 30 37 41 44 41 37 33 31 31 33 32 31 39 40 39 38 40 40
26 22 23 23 17 13 60 70 63 69 67 69 56 66 72 97 89 96 95 97 95 93 82 80 79 65 48 48 42 26 24 26 38 36 35 33 33 32 32 33 33 32 31 35 43 43 42 44 41
28 26 26 20 19 22 58 61 69 66 58 63 57 80 85 94 100 100 96 98 96 96 99 93 82 72 64 42 28 24 20 30 36 34 32 31 32 32 32 33 34 34 32 31 36 47 48 46 45
21 20 19 17 15 28 61 66 68 70 63 56 58 80 94 94 100 99 87 95 99 90 90 91 86 79 62 47 35 26 25 39 32 30 31 32 32 32 32 32 33 34 35 36 41 50 49 48 48
14 21 23 16 22 54 62 67 62 60 64 55 81 90 96 100 99 93 96 99 99 99 89 82 69 77 65 58 41 27 36 38 36 37 38 42 46 38 34 33 35 36 42 47 48 51 52 49 48
20 24 19 15 36 55 58 58 60 56 59 69 95 92 96 97 96 97 96 99 91 95 95 79 65 85 74 57 38 35 46 40 44 51 51 64 63 52 38 37 42 43 50 51 53 54 53 49 47
18 20 16 20 52 45 57 53 57 62 62 56 95 94 95 95 87 91 95 90 70 75 82 86 94 82 61 48 36 46 46 55 60 64 69 70 71 69 54 45 50 52 60 58 59 58 49 46 44
16 14 13 41 41 43 45 43 51 58 50 72 86 86 89 88 79 80 95 88 76 84 84 77 88 74 53 39 34 50 50 57 69 79 84 78 70 73 69 66 58 59 59 56 54 52 48 44 46
16 15 23 39 39 36 43 49 41 54 64 72 84 81 84 76 77 81 92 84 84 75 76 79 83 69 50 44 44 56 61 73 90 81 76 75 67 67 59 60 55 57 56 54 48 45 45 44 47
18 22 35 38 35 28 41 39 38 49 56 64 73 89 77 76 83 86 88 93 93 86 74 82 78 76 55 53 62 70 79 88 84 78 74 73 68 65 62 59 58 57 56 52 48 46 48 50 52
22 18 39 43 44 38 37 35 46 50 57 64 69 75 79 73 86 84 84 89 87 84 77 81 83 68 62 62 66 82 86 84 64 51 58 56 65 64 64 60 60 58 53 51 50 52 54 55 54
26 20 21 38 36 34 31 43 46 52 60 67 66 67 72 78 81 79 86 82 81 80 85 80 78 66 64 63 76 83 81 77 51 50 52 57 62 66 64 63 58 54 53 54 56 58 58 53 46
32 26 22 27 28 29 27 33 32 47 58 68 70 60 66 75 76 81 82 85 83 82 76 68 64 68 71 78 79 78 69 54 54 58 60 68 69 67 64 57 54 55 55 55 53 50 47 48 48
34 25 20 24 23 27 29 26 29 46 58 68 61 47 51 72 73 73 78 77 77 73 64 59 70 73 74 74 68 63 62 59 61 66 71 69 64 61 56 54 56 57 56 54 49 41 42 46 52
30 32 36 23 18 31 31 25 29 47 54 58 52 50 52 64 58 61 63 70 73 68 62 60 72 72 72 74 68 67 66 68 68 64 62 62 63 62 55 58 58 56 55 48 45 49 50 52 51
33 36 34 25 19 28 31 26 26 39 44 46 46 47 46 47 50 54 59 65 68 66 62 61 69 74 72 69 65 68 68 70 63 65 64 62 59 58 58 57 55 49 43 48 51 51 53 54 52
33 35 31 32 20 14 21 29 28 22 35 40 42 41 39 43 47 54 60 67 67 79 71 64 72 73 71 65 66 71 69 66 70 67 63 59 56 54 52 49 42 46 52 55 54 55 55 55 55
37 27 26 30 24 22 25 41 38 30 29 41 41 44 43 43 44 61 64 75 77 83 76 79 81 76 68 65 77 70 68 72 65 62 59 57 56 52 46 44 49 53 53 46 44 46 49 57 62
35 26 30 27 32 35 32 36 32 36 29 36 35 46 48 47 48 75 74 81 82 83 81 80 77 77 76 68 72 72 64 65 62 61 59 57 54 50 45 48 52 45 39 37 37 40 46 54 63
32 30 35 46 45 46 40 39 40 43 29 26 26 37 49 60 67 81 86 91 90 89 91 79 78 78 77 76 73 78 65 64 61 60 59 56 54 50 46 40 37 35 35 36 38 41 46 59 63
30 39 58 56 71 56 43 42 39 30 32 33 28 48 52 62 80 93 93 93 96 94 97 86 84 84 81 76 80 83 67 61 56 60 57 58 48 38 35 34 40 37 37 36 39 43 47 50 65
38 35 60 51 69 56 47 52 41 28 25 31 34 47 68 73 76 87 90 92 96 97 90 87 90 89 84 82 80 77 61 57 59 50 43 38 34 34 36 38 38 38 38 40 42 45 46 57 64
33 37 36 70 74 82 53 31 28 32 37 45 51 50 65 76 87 89 87 88 92 94 92 89 87 84 73 59 63 59 51 45 42 43 40 36 35 37 40 39 38 42 44 42 43 47 53 56 53
32 26 38 54 55 59 39 35 42 34 35 50 47 52 65 74 89 90 85 85 80 78 78 81 79 64 53 48 44 42 42 42 43 38 38 36 38 39 39 42 44 45 44 43 42 47 56 52 53
30 30 30 39 56 56 68 42 24 35 43 50 52 54 65 67 77 83 82 79 72 70 70 69 64 56 52 49 46 43 41 38 35 35 37 39 39 43 50 54 45 44 45 43 44 52 51 54 58
27 34 40 63 36 60 75 48 28 29 36 50 54 55 61 57 61 68 73 77 73 67 61 53 51 52 51 49 46 43 40 42 35 36 39 44 53 55 48 43 44 46 45 45 45 50 55 58 58

GFSSGP_925_rhum_039.txt.gz
RH
20 18 21 29 27 32 31 26 20 38 50 56 58 66 76 96 79 75 99 92 94 100 95 86 70 54 55 62 51 33 37 52 44 30 35 52 77 57 48 40 50 64 68 67 66 64 48 46 39
20 22 29 28 29 31 27 24 38 43 58 69 64 70 83 96 85 95 96 94 99 100 97 90 80 68 67 63 39 36 67 76 47 56 64 53 67 42 30 32 38 52 62 65 64 42 49 56 55
20 33 39 32 32 27 26 29 57 57 63 62 51 54 73 92 85 89 88 96 99 100 100 91 68 63 69 49 36 54 47 40 35 52 66 56 66 33 32 32 36 45 52 60 63 40 39 43 52
24 23 22 21 20 19 19 20 41 50 57 62 61 64 66 92 83 85 94 96 98 100 98 84 65 67 60 40 36 34 33 33 44 55 52 47 61 35 31 30 35 36 36 38 48 43 37 37 42
27 25 23 20 18 16 55 68 53 68 70 69 64 67 80 97 96 100 100 96 98 100 95 78 75 70 52 35 32 31 38 39 57 64 46 44 44 33 31 30 37 40 39 38 39 44 41 38 37
30 24 26 25 19 15 60 69 66 68 65 67 63 78 94 99 97 98 99 100 100 100 96 80 78 62 39 34 37 28 31 47 59 49 39 40 35 34 32 31 34 41 43 42 43 43 43 42 41
31 31 27 22 22 17 59 61 66 62 55 58 63 88 95 97 100 94 92 95 93 100 99 98 97 61 42 41 26 39 46 42 42 36 36 36 34 34 33 33 33 34 39 46 47 45 47 46 46
28 23 20 18 17 19 60 65 70 68 63 59 59 90 96 98 100 92 86 84 94 99 98 91 80 56 48 46 54 35 37 39 37 34 34 34 34 36 36 36 35 36 40 44 48 49 48 48 47
16 25 25 19 17 38 65 69 63 67 61 83 91 91 94 100 93 100 100 100 91 85 95 88 82 64 58 47 27 29 44 38 36 38 37 36 37 39 38 36 37 42 46 49 53 52 49 48 47
23 25 21 18 29 53 62 61 56 57 86 94 96 94 100 99 99 99 98 98 100 88 75 86 78 67 57 53 31 45 52 42 38 40 41 47 44 43 40 39 41 47 49 52 55 54 50 47 45
20 22 18 18 44 50 57 51 59 61 69 82 96 95 96 98 96 96 100 99 97 98 90 90 74 74 60 55 40 43 51 46 45 52 61 65 58 47 43 45 48 52 55 56 58 51 47 45 45
20 17 16 40 50 45 48 50 47 58 58 80 88 88 89 91 92 92 95 95 96 95 81 68 88 88 69 56 39 46 57 55 57 61 66 70 71 64 52 52 56 57 60 58 52 49 47 47 47
17 16 26 40 43 44 43 46 43 65 91 84 82 87 87 77 83 88 87 88 95 97 79 74 78 91 75 62 45 53 58 65 73 79 77 73 69 70 69 60 62 60 56 53 48 47 48 51 50
18 23 36 40 41 32 32 45 47 66 91 89 84 86 83 74 81 91 89 85 87 85 72 77 91 88 72 61 48 59 63 82 83 77 76 70 66 60 66 59 58 56 52 50 50 49 51 52 52
23 33 39 42 41 38 38 45 46 66 84 92 88 88 82 69 80 83 92 82 73 74 78 80 89 91 70 55 50 61 71 89 82 75 73 71 66 61 60 59 57 55 53 52 53 55 56 55 49
28 23 37 33 41 38 32 43 53 62 74 89 93 89 78 79 78 79 86 82 74 79 77 80 84 80 65 55 60 72 86 84 76 75 73 72 71 68 63 60 58 55 56 55 55 55 52 45 38
35 27 24 33 36 36 34 39 51 64 68 80 85 88 82 79 82 80 80 78 76 79 75 77 87 82 70 64 70 86 88 75 52 55 59 68 72 69 66 60 57 56 54 52 52 49 41 39 42
36 34 29 30 32 35 38 32 52 61 68 73 79 80 84 83 83 77 82 77 74 77 75 78 86 82 71 74 85 83 79 68 57 58 68 75 71 68 62 56 55 54 53 53 50 39 44 47 50
30 34 38 30 19 31 33 28 48 56 67 80 81 68 75 82 75 80 82 82 78 81 83 81 80 76 76 87 81 77 71 64 65 67 71 71 68 62 56 54 55 56 54 48 40 45 46 53 51
31 31 34 27 23 32 34 33 28 56 61 66 70 59 61 72 80 80 83 86 85 82 80 78 73 72 82 80 78 73 65 65 66 68 68 67 66 60 56 54 54 54 44 46 51 50 51 53 55
31 32 34 31 29 19 29 31 26 31 48 56 58 49 52 69 76 77 79 79 82 79 76 72 69 75 80 76 72 69 70 72 73 69 67 63 62 61 57 56 53 46 50 53 53 52 54 55 57
33 30 32 34 31 24 24 36 38 34 44 49 51 54 52 60 61 65 68 73 78 77 75 73 74 79 78 76 76 68 70 76 68 66 65 61 60 58 56 50 47 51 53 48 43 42 45 49 53
34 30 34 30 32 35 34 36 33 38 38 42 47 51 51 50 54 59 64 69 74 77 79 78 84 87 79 78 73 71 72 66 63 68 65 60 59 56 51 46 49 51 42 39 37 39 42 50 58
29 28 39 46 47 48 42 38 40 38 34 32 35 45 50 49 60 60 61 69 74 80 86 84 85 86 83 80 73 78 72 67 66 66 62 60 57 52 49 52 46 42 42 38 32 38 43 52 63
33 41 56 55 66 53 43 45 41 28 29 31 36 43 48 55 75 87 89 87 89 89 90 89 97 91 86 84 74 82 80 69 64 63 62 60 58 52 46 40 40 48 62 42 40 40 43 47 51
37 39 58 50 64 52 49 58 41 30 33 33 34 38 53 69 68 92 89 89 92 92 94 100 98 92 90 88 86 84 87 74 71 65 62 62 57 47 40 44 50 60 43 47 43 39 44 49 54
34 40 37 68 74 79 54 43 28 31 44 55 51 65 75 86 87 90 94 92 93 97 97 99 91 86 88 82 85 87 86 84 75 70 63 61 50 39 40 51 49 52 48 47 50 45 44 51 55
31 32 41 55 50 59 48 40 41 33 31 52 57 61 76 87 93 95 95 96 98 100 100 94 83 84 85 86 86 84 83 77 69 67 55 44 36 40 54 48 52 56 47 47 47 44 47 55 54
34 34 35 43 56 55 66 50 30 33 32 40 42 54 70 85 91 91 91 92 93 94 90 87 88 87 87 84 77 72 71 65 55 48 44 40 42 52 43 47 51 51 48 46 45 45 51 54 54
29 33 39 62 41 64 77 53 28 27 34 43 44 50 64 70 81 87 87 89 91 91 88 86 87 86 82 66 60 59 50 48 49 46 43 47 46 41 46 55 52 50 46 46 45 47 50 52 55

GFSSGP_925_rhum_042.txt.gz
RH
18 17 21 26 28 33 31 25 22 28 40 70 66 70 81 88 81 76 96 94 98 99 94 90 66 58 56 46 31 27 26 41 67 77 55 50 61 60 58 70 73 68 68 69 62 52 42 47 66
17 20 28 28 30 32 24 23 27 56 69 68 57 68 91 92 83 93 94 94 97 99 96 81 69 64 58 39 30 26 24 29 34 40 74 63 58 61 67 70 66 64 63 72 75 50 45 58 65
21 31 39 31 34 28 26 20 53 61 65 55 50 65 76 93 86 88 87 96 93 100 95 86 85 68 55 34 26 24 22 20 26 40 74 47 56 62 60 65 70 58 61 54 49 58 60 60 59
24 26 22 23 22 19 19 18 45 52 59 60 57 70 78 98 90 85 89 93 96 100 91 88 80 68 45 25 19 27 27 38 58 61 64 60 65 63 58 64 70 48 47 38 38 41 44 48 40
24 27 27 22 20 16 20 64 71 63 67 68 61 76 92 96 100 100 100 100 100 99 95 88 76 60 41 31 30 29 41 53 63 61 64 59 54 49 48 50 63 48 40 39 37 36 41 44 46
32 27 29 26 20 17 42 67 68 66 67 63 74 85 93 99 99 100 99 99 100 100 100 95 86 69 72 64 29 44 56 70 71 60 56 48 41 41 42 43 43 44 42 40 41 41 41 41 42
30 34 30 22 24 19 50 62 66 70 67 69 68 94 96 98 100 98 91 87 98 100 100 100 99 79 64 51 44 60 67 64 54 40 41 38 35 35 40 43 43 44 46 47 46 45 45 45 44
32 27 22 20 20 17 56 63 72 73 72 61 78 94 97 99 99 84 86 88 86 98 100 100 79 57 51 56 67 71 65 56 35 37 35 36 35 34 34 35 37 46 50 50 49 49 47 45 45
19 32 29 20 18 19 63 62 67 68 88 86 89 89 95 100 94 90 100 100 98 94 92 97 83 70 64 63 66 79 68 43 41 36 37 37 38 38 40 41 44 47 51 52 52 50 48 46 46
27 30 25 20 17 42 65 60 58 63 90 88 96 97 100 100 100 98 98 99 100 100 92 74 71 56 48 57 46 42 55 41 38 37 39 39 40 40 41 46 48 50 53 55 53 50 48 46 44
22 24 19 17 19 51 61 57 62 79 83 86 92 96 98 98 95 97 98 97 98 100 97 88 79 79 76 53 50 56 42 42 43 43 41 42 43 42 45 45 50 52 55 58 52 47 46 46 46
22 20 18 20 49 51 52 59 60 57 56 76 84 86 92 89 89 88 92 96 97 100 94 83 83 83 94 66 38 48 42 47 45 46 60 56 51 46 47 50 52 59 62 54 50 49 48 47 47
19 17 21 26 47 43 46 46 56 89 87 85 85 88 87 88 92 94 97 100 94 99 95 89 76 80 71 62 42 54 49 50 51 61 69 71 66 58 50 57 62 60 56 53 50 49 48 48 49
19 32 36 43 42 38 41 50 50 93 91 92 89 94 91 86 92 92 89 94 96 79 78 71 76 85 74 63 43 53 52 57 66 70 73 74 67 69 72 64 61 56 53 51 50 50 50 50 50
23 39 39 41 37 42 42 44 51 94 89 96 92 92 88 81 87 84 84 90 90 88 77 73 73 92 80 68 51 55 59 70 79 75 72 71 73 64 69 61 57 54 53 52 52 53 54 52 42
25 27 42 40 44 41 32 42 70 93 88 94 94 94 88 79 80 80 88 80 86 78 71 70 83 92 83 69 54 59 66 84 82 78 77 75 71 64 64 59 57 55 55 54 52 53 50 41 36
36 30 25 30 39 40 34 48 63 79 85 94 95 94 88 88 81 76 80 83 79 78 78 83 84 85 82 75 60 62 72 88 84 84 82 76 72 68 62 59 58 56 55 54 51 48 39 40 37
36 35 33 31 34 38 44 44 64 75 82 90 94 94 93 87 83 80 74 79 77 73 70 72 78 85 80 72 63 73 90 89 76 68 69 72 74 70 65 62 59 57 53 52 48 37 38 35 42
32 35 36 33 23 39 44 38 62 68 73 89 92 93 93 88 75 79 74 75 77 75 76 72 81 86 84 77 76 92 95 85 71 66 64 71 74 71 66 60 57 54 54 50 40 41 42 46 50
34 32 33 31 25 34 32 39 52 69 66 75 81 85 83 85 87 85 82 80 77 73 73 75 75 81 85 74 74 86 86 80 70 66 69 72 72 68 60 56 56 56 51 42 47 46 48 54 56
32 31 32 34 32 23 30 34 33 46 60 68 72 69 70 76 88 87 90 88 86 84 81 78 79 81 82 76 80 86 85 76 70 69 71 74 70 64 59 58 56 52 46 50 51 51 52 54 60
32 30 32 34 35 34 28 36 35 37 58 62 65 71 66 62 76 84 85 88 90 88 83 81 83 83 84 81 84 83 79 74 69 65 67 68 70 64 60 57 54 46 53 50 44 44 42 41 45
32 31 33 34 36 37 35 37 31 40 46 58 56 61 60 56 67 78 82 83 85 84 82 83 86 86 82 84 85 82 75 69 64 66 67 67 73 64 61 56 48 53 45 39 42 36 34 32 48
30 31 40 47 48 52 40 41 41 42 37 36 44 51 52 54 66 69 71 75 79 81 81 82 85 86 86 85 86 81 74 73 72 72 74 70 68 65 58 51 53 44 43 46 52 45 41 36 49
34 42 56 54 65 56 43 50 46 31 28 33 38 43 48 50 67 71 76 79 78 78 82 85 86 89 87 84 86 85 83 79 77 71 74 72 66 60 54 53 46 45 66 52 66 37 32 38 43
37 41 61 50 62 48 47 54 37 30 37 47 39 36 49 60 65 69 69 78 81 83 84 89 94 94 90 85 82 86 86 86 81 73 72 70 62 57 53 46 45 61 63 71 48 40 42 42 42
38 43 38 70 73 78 54 44 28 35 48 52 44 54 58 72 73 73 80 80 85 89 85 88 91 93 89 82 82 87 88 88 88 80 76 68 62 57 46 46 49 63 76 54 47 46 47 43 46
32 38 45 58 52 53 50 43 41 30 32 47 48 52 64 79 85 92 92 92 90 84 79 83 88 87 86 88 87 89 90 93 96 89 80 71 64 58 49 51 53 72 51 54 50 48 47 46 48
42 40 44 46 56 54 64 48 36 28 31 36 45 55 62 82 92 95 95 93 89 88 81 83 90 93 91 88 92 93 94 97 95 88 84 72 66 53 51 47 66 52 54 49 58 50 47 48 53
33 40 43 64 43 65 75 55 29 28 30 32 38 44 56 78 88 92 93 97 98 94 94 94 84 85 93 88 88 92 94 92 88 84 78 72 59 48 43 56 48 50 56 74 59 48 47 50 54

GFSSGP_925_rhum_045.txt.gz
RH
19 16 22 22 18 22 20 16 19 19 28 68 63 60 66 72 69 62 98 99 100 99 97 96 94 81 58 46 38 30 26 27 30 23 46 69 70 67 63 68 68 71 66 51 54 62 77 68 41
16 21 27 22 18 17 13 18 25 44 56 63 58 71 74 84 75 86 94 96 100 99 97 96 95 94 88 64 52 43 50 47 62 70 72 67 71 68 64 63 64 66 61 52 55 59 71 67 43
26 29 28 24 22 15 15 18 31 44 62 54 57 64 72 85 78 86 87 96 100 99 97 97 95 97 71 42 42 62 65 62 66 69 62 66 69 67 58 59 59 71 81 80 67 61 64 48 46
24 23 17 19 18 17 16 15 38 50 54 50 54 77 81 97 95 94 94 95 100 98 99 92 95 73 35 36 46 41 60 73 72 67 65 68 73 66 62 54 51 49 57 60 60 60 49 42 46
22 20 24 21 18 15 14 36 60 49 58 55 54 79 85 95 100 99 100 99 98 98 95 93 86 65 57 26 22 26 48 66 72 64 72 78 79 74 53 45 41 38 40 45 47 45 42 47 46
22 20 22 19 17 15 18 57 57 60 58 59 70 73 93 99 97 100 100 100 100 100 93 99 77 83 89 67 39 52 56 48 69 64 72 69 69 55 43 42 38 37 38 38 40 44 45 46 45
25 24 24 22 21 17 38 58 63 63 60 61 63 79 97 98 100 99 97 100 99 100 100 100 97 89 74 80 52 56 39 66 65 50 49 48 47 44 42 43 44 43 42 43 44 44 45 45 44
23 20 21 19 17 17 49 59 65 60 66 59 72 76 87 96 100 92 94 100 100 99 100 99 94 86 69 79 71 52 57 62 62 44 42 42 43 45 47 48 48 47 47 47 47 46 45 45 44
19 24 24 20 18 17 60 58 65 66 71 78 82 79 91 100 100 99 100 100 100 99 100 95 92 79 73 76 86 67 61 62 46 43 35 34 38 41 51 52 54 52 50 50 49 47 46 46 45
21 25 22 18 17 26 58 54 59 70 79 79 87 96 100 94 93 99 99 99 100 100 99 88 85 75 74 74 71 61 43 51 39 37 34 35 38 43 45 50 52 55 55 52 49 48 47 45 45
22 22 19 16 16 37 54 57 54 67 73 71 86 93 94 96 89 93 99 100 100 99 100 99 82 70 57 51 53 56 66 44 38 37 36 40 44 46 48 49 54 60 56 53 50 47 46 46 44
23 19 18 16 39 49 50 52 58 55 60 68 75 86 88 90 91 92 98 99 98 93 95 72 65 64 78 69 73 67 51 42 41 42 43 43 46 47 47 52 57 57 57 52 48 48 47 46 46
22 17 18 22 42 42 46 46 53 71 81 76 79 80 79 82 91 92 92 91 92 90 95 95 97 88 77 78 72 62 50 47 44 45 45 47 45 46 51 54 60 62 56 52 50 49 48 48 47
20 25 34 39 43 40 40 48 50 82 84 83 81 81 79 80 86 85 82 86 95 90 86 94 81 70 71 60 53 58 51 47 51 59 66 69 63 52 53 61 61 58 54 52 50 49 49 48 47
24 30 36 40 39 42 41 45 48 80 83 87 84 83 80 81 88 88 84 82 89 96 90 93 90 87 85 76 52 60 52 52 58 64 69 72 71 72 72 63 60 55 53 52 51 51 51 49 40
23 29 34 32 39 43 35 36 57 86 86 89 86 79 80 72 80 84 89 89 88 86 89 93 96 92 93 79 53 53 54 60 71 77 74 72 71 73 70 63 58 54 54 53 53 52 49 40 43
32 26 27 26 39 42 35 40 57 84 74 74 75 76 75 72 74 78 81 76 78 81 85 89 93 89 89 75 59 50 57 70 78 80 78 79 79 69 65 60 57 56 56 55 53 50 40 48 49
34 32 31 29 36 39 41 38 59 78 75 62 69 74 76 72 65 74 82 79 80 84 84 82 76 80 90 76 66 55 62 75 87 84 83 79 74 68 64 60 59 58 57 54 50 40 37 41 47
31 33 31 28 25 37 40 38 40 70 77 74 67 72 73 69 61 70 78 84 80 83 84 83 82 83 91 84 76 81 91 86 90 86 82 80 77 73 66 62 60 60 54 51 44 39 44 49 35
35 33 32 29 26 29 29 27 33 60 68 65 64 68 66 66 68 69 77 82 84 79 82 85 90 89 88 81 69 80 86 93 89 75 69 68 71 73 70 65 62 56 53 48 44 43 48 41 42
34 32 34 32 30 26 29 27 32 50 57 58 64 62 63 63 68 70 77 80 81 82 81 85 88 89 85 89 83 77 85 91 90 77 74 75 75 73 69 63 58 56 52 46 48 44 39 47 60
36 29 32 33 32 30 27 27 28 35 54 58 53 62 62 60 63 63 73 77 79 83 84 80 86 84 87 90 89 80 79 84 88 80 76 74 77 72 65 60 57 55 47 49 46 36 34 44 51
32 34 34 34 35 37 34 31 26 36 35 47 51 54 58 56 56 60 66 72 77 84 85 81 85 81 82 87 89 86 83 85 88 82 77 79 76 70 64 60 57 52 50 47 39 34 34 38 36
32 33 38 42 40 43 37 33 30 29 29 29 32 46 50 53 59 56 61 70 78 91 86 86 92 88 93 93 91 89 90 86 82 80 79 75 77 72 65 60 56 51 50 41 50 56 52 45 50
33 36 44 49 53 48 44 43 31 27 27 28 29 30 41 50 54 54 61 73 75 88 92 94 93 94 94 97 92 92 91 87 82 74 71 74 75 75 66 61 55 51 43 54 55 81 69 39 36
39 36 51 46 50 41 46 42 24 29 27 38 42 39 34 45 52 51 56 65 74 82 87 92 92 90 98 98 93 98 92 89 81 75 72 73 71 70 71 62 55 46 49 62 88 51 40 40 40
37 40 37 59 70 61 41 35 25 31 31 36 40 43 41 44 49 51 54 63 70 79 85 90 91 89 97 98 100 100 98 90 87 83 80 80 76 71 72 61 52 51 66 80 58 46 44 45 44
35 35 44 50 54 56 41 40 25 25 27 34 38 40 45 54 60 59 59 64 70 78 84 90 88 88 92 97 99 99 99 91 93 92 91 88 83 77 71 60 51 57 67 56 54 48 51 47 46
42 40 44 40 46 46 46 34 32 27 25 31 36 40 46 56 61 66 68 70 73 81 85 88 86 88 92 98 99 99 98 94 97 96 98 96 89 84 67 61 54 60 65 58 53 63 68 51 47
35 39 41 53 46 56 56 40 27 30 26 29 29 39 42 50 58 68 72 79 81 81 83 86 92 93 92 94 90 93 97 100 100 100 100 100 92 80 67 65 55 72 66 59 66 76 67 60 56